Flag for U.S.A. Weather past 2 weeks in Oberlin, Ohio, U.S.A.

Now
74 °F

Partly cloudy.


Feels Like: 77 °F
Forecast: 56 / 74 °F
Wind: 9 mph from South

Location: Lorain County Regional Airport

Current Time: Sep 20, 2014 at 10:38:17 PM

Latest Report: Sep 20, 2014 at 9:53 PM


Visibility: 10 mi

Pressure: 29.89 "Hg

Humidity: 62%

Dew point: 60 °F

Location of OberlinLocation

Historic Weather in Oberlin — Graph

°F

Oberlin temperature yesterday

Maximum temperature yesterday: 72 °F (at 4:53 PM)
Minimum temperature yesterday: 47 °F (at 6:53 AM)
Average temperature yesterday: 59 °F

Past Weeks' High & Low Weather Summary

 TemperatureHumidityPressure
High83 °F (Sep 5, 8:53 PM)90% (Sep 6, 1:53 AM)30.36 "Hg (Sep 6, 1:53 AM)
Low45 °F (Sep 14, 6:53 AM)41% (Sep 19, 4:53 PM)29.65 "Hg (Sep 10, 7:53 PM)
Average63 °F73%30.10 "Hg
* Reported Sep 5 8:53 PM — Sep 20 8:53 PM, Oberlin, Weather by CustomWeather, © 2014

Note: Actual official high and low records may vary slightly from our data, if they occured in-between our weather recording intervals... More about our weather records

Advertising

Oberlin weather history for previous 24 hours

 ConditionsComfort  
Time TempWeatherWind HumidityBarometerVisibility
8:53 PM
Sep 20
73 °FPassing clouds.7 mph64%29.90 "Hg10 mi
7:53 PM75 °FSunny.9 mph58%29.87 "Hg10 mi
6:53 PM78 °FSunny.12 mph52%29.86 "Hg10 mi
5:53 PM82 °FPassing clouds.18 mph44%29.86 "Hg10 mi
4:53 PM83 °FPassing clouds.20 mph46%29.88 "Hg10 mi
3:53 PM83 °FSunny.18 mph48%29.90 "Hg10 mi
2:53 PM82 °FSunny.24 mph48%29.92 "Hg10 mi
1:53 PM81 °FPassing clouds.21 mph49%29.96 "Hg10 mi
8:53 AM66 °FSunny.10 mph78%30.06 "Hg7 mi
7:53 AM62 °FClear.8 mph83%30.07 "Hg5 mi
6:53 AM61 °FClear.8 mph83%30.06 "Hg7 mi
5:53 AM61 °FClear.8 mph83%30.04 "Hg7 mi
4:53 AM60 °FClear.10 mph83%30.03 "Hg7 mi
3:53 AM60 °FClear.9 mph80%30.05 "Hg8 mi
2:53 AM60 °FClear.9 mph78%30.06 "Hg9 mi
1:53 AM57 °FClear.8 mph78%30.06 "Hg10 mi
12:53 AM53 °FClear.3 mph83%30.07 "Hg10 mi
11:53 PM
Sep 19
55 °FClear.3 mph83%30.09 "Hg9 mi
10:53 PM57 °FClear.No wind81%30.10 "Hg8 mi
Weather by CustomWeather, © 2014

See weather overviewHow to use our weather pages